Year,Month,Day,Hour,Minute,Value (Times are PST for temperature in C)
2011,04,19,00,00,4.60
2011,04,19,00,01,4.60
2011,04,19,00,02,4.60
2011,04,19,00,03,4.60
2011,04,19,00,04,4.50
2011,04,19,00,05,4.50
2011,04,19,00,06,4.40
2011,04,19,00,07,4.40
2011,04,19,00,08,4.40
2011,04,19,00,09,4.30
2011,04,19,00,10,4.30
2011,04,19,00,11,4.30
2011,04,19,00,12,4.30
2011,04,19,00,13,4.20
2011,04,19,00,14,4.20
2011,04,19,00,15,4.20
2011,04,19,00,16,4.10
2011,04,19,00,17,4.10
2011,04,19,00,18,4.10
2011,04,19,00,19,4.10
2011,04,19,00,20,4.00
2011,04,19,00,21,4.00
2011,04,19,00,22,3.90
2011,04,19,00,23,3.90
2011,04,19,00,24,3.90
2011,04,19,00,25,3.90
2011,04,19,00,26,3.90
2011,04,19,00,27,3.90
2011,04,19,00,28,3.80
2011,04,19,00,29,3.80
2011,04,19,00,30,3.80
2011,04,19,00,31,3.80
2011,04,19,00,32,3.90
2011,04,19,00,33,3.90
2011,04,19,00,34,3.90
2011,04,19,00,35,3.90
2011,04,19,00,36,3.90
2011,04,19,00,37,3.90
2011,04,19,00,38,3.80
2011,04,19,00,39,3.80
2011,04,19,00,40,3.80
2011,04,19,00,41,3.80
2011,04,19,00,42,3.80
2011,04,19,00,43,3.80
2011,04,19,00,44,3.80
2011,04,19,00,45,3.80
2011,04,19,00,46,3.80
2011,04,19,00,47,3.80
2011,04,19,00,48,3.80
2011,04,19,00,49,3.80
2011,04,19,00,50,3.80
2011,04,19,00,51,3.80
2011,04,19,00,52,3.80
2011,04,19,00,53,3.80
2011,04,19,00,54,3.80
2011,04,19,00,55,3.80
2011,04,19,00,56,3.80
2011,04,19,00,57,3.80
2011,04,19,00,58,3.80
2011,04,19,00,59,3.80
2011,04,19,01,00,3.80
2011,04,19,01,01,3.80
2011,04,19,01,02,3.80
2011,04,19,01,03,3.80
2011,04,19,01,04,3.80
2011,04,19,01,05,3.80
2011,04,19,01,06,3.80
2011,04,19,01,07,3.80
2011,04,19,01,08,3.70
2011,04,19,01,09,3.70
2011,04,19,01,10,3.70
2011,04,19,01,11,3.70
2011,04,19,01,12,3.70
2011,04,19,01,13,3.60
2011,04,19,01,14,3.60
2011,04,19,01,15,3.60
2011,04,19,01,16,3.60
2011,04,19,01,17,3.60
2011,04,19,01,18,3.60
2011,04,19,01,19,3.60
2011,04,19,01,20,3.60
2011,04,19,01,21,3.50
2011,04,19,01,22,3.50
2011,04,19,01,23,3.50
2011,04,19,01,24,3.50
2011,04,19,01,25,3.40
2011,04,19,01,26,3.40
2011,04,19,01,27,3.40
2011,04,19,01,28,3.40
2011,04,19,01,29,3.40
2011,04,19,01,30,3.30
2011,04,19,01,31,3.30
2011,04,19,01,32,3.30
2011,04,19,01,33,3.30
2011,04,19,01,34,3.30
2011,04,19,01,35,3.30
2011,04,19,01,36,3.30
2011,04,19,01,37,3.30
2011,04,19,01,38,3.30
2011,04,19,01,39,3.30
2011,04,19,01,40,3.20
2011,04,19,01,41,3.30
2011,04,19,01,42,3.30
2011,04,19,01,43,3.30
2011,04,19,01,44,3.30
2011,04,19,01,45,3.30
2011,04,19,01,46,3.30
2011,04,19,01,47,3.30
2011,04,19,01,48,3.30
2011,04,19,01,49,3.30
2011,04,19,01,50,3.30
2011,04,19,01,51,3.30
2011,04,19,01,52,3.30
2011,04,19,01,53,3.40
2011,04,19,01,54,3.40
2011,04,19,01,55,3.40
2011,04,19,01,56,3.40
2011,04,19,01,57,3.50
2011,04,19,01,58,3.50
2011,04,19,01,59,3.50
2011,04,19,02,00,3.60
2011,04,19,02,01,3.60
2011,04,19,02,02,3.60
2011,04,19,02,03,3.60
2011,04,19,02,04,3.70
2011,04,19,02,05,3.70
2011,04,19,02,06,3.70
2011,04,19,02,07,3.70
2011,04,19,02,08,3.70
2011,04,19,02,09,3.80
2011,04,19,02,10,3.80
2011,04,19,02,11,3.80
2011,04,19,02,12,3.90
2011,04,19,02,13,3.90
2011,04,19,02,14,3.90
2011,04,19,02,15,4.00
2011,04,19,02,16,4.00
2011,04,19,02,17,4.00
2011,04,19,02,18,4.10
2011,04,19,02,19,4.10
2011,04,19,02,20,4.10
2011,04,19,02,21,4.10
2011,04,19,02,22,4.10
2011,04,19,02,23,4.10
2011,04,19,02,24,4.20
2011,04,19,02,25,4.20
2011,04,19,02,26,4.20
2011,04,19,02,27,4.20
2011,04,19,02,28,4.20
2011,04,19,02,29,4.20
2011,04,19,02,30,4.20
2011,04,19,02,31,4.20
2011,04,19,02,32,4.20
2011,04,19,02,33,4.20
2011,04,19,02,34,4.20
2011,04,19,02,35,4.20
2011,04,19,02,36,4.20
2011,04,19,02,37,4.20
2011,04,19,02,38,4.20
2011,04,19,02,39,4.20
2011,04,19,02,40,4.20
2011,04,19,02,41,4.20
2011,04,19,02,42,4.10
2011,04,19,02,43,4.10
2011,04,19,02,44,4.10
2011,04,19,02,45,4.00
2011,04,19,02,46,4.00
2011,04,19,02,47,4.00
2011,04,19,02,48,3.90
2011,04,19,02,49,3.90
2011,04,19,02,50,3.90
2011,04,19,02,51,3.80
2011,04,19,02,52,3.80
2011,04,19,02,53,3.70
2011,04,19,02,54,3.70
2011,04,19,02,55,3.70
2011,04,19,02,56,3.60
2011,04,19,02,57,3.60
2011,04,19,02,58,3.60
2011,04,19,02,59,3.50
2011,04,19,03,00,3.50
2011,04,19,03,01,3.50
2011,04,19,03,02,3.40
2011,04,19,03,03,3.40
2011,04,19,03,04,3.40
2011,04,19,03,05,3.30
2011,04,19,03,06,3.30
2011,04,19,03,07,3.30
2011,04,19,03,08,3.30
2011,04,19,03,09,3.30
2011,04,19,03,10,3.30
2011,04,19,03,11,3.30
2011,04,19,03,12,3.30
2011,04,19,03,13,3.30
2011,04,19,03,14,3.30
2011,04,19,03,15,3.20
2011,04,19,03,16,3.20
2011,04,19,03,17,3.20
2011,04,19,03,18,3.20
2011,04,19,03,19,3.20
2011,04,19,03,20,3.20
2011,04,19,03,21,3.20
2011,04,19,03,22,3.20
2011,04,19,03,23,3.20
2011,04,19,03,24,3.10
2011,04,19,03,25,3.10
2011,04,19,03,26,3.10
2011,04,19,03,27,3.10
2011,04,19,03,28,3.10
2011,04,19,03,29,3.10
2011,04,19,03,30,3.10
2011,04,19,03,31,3.10
2011,04,19,03,32,3.10
2011,04,19,03,33,3.10
2011,04,19,03,34,3.10
2011,04,19,03,35,3.10
2011,04,19,03,36,3.10
2011,04,19,03,37,3.10
2011,04,19,03,38,3.10
2011,04,19,03,39,3.10
2011,04,19,03,40,3.10
2011,04,19,03,41,3.10
2011,04,19,03,42,3.00
2011,04,19,03,43,3.00
2011,04,19,03,44,3.00
2011,04,19,03,45,3.00
2011,04,19,03,46,2.90
2011,04,19,03,47,2.90
2011,04,19,03,48,2.90
2011,04,19,03,49,2.90
2011,04,19,03,50,2.90
2011,04,19,03,51,2.80
2011,04,19,03,52,2.80
2011,04,19,03,53,2.80
2011,04,19,03,54,2.80
2011,04,19,03,55,2.80
2011,04,19,03,56,2.70
2011,04,19,03,57,2.70
2011,04,19,03,58,2.60
2011,04,19,03,59,2.60
2011,04,19,04,00,2.60
2011,04,19,04,01,2.50
2011,04,19,04,02,2.50
2011,04,19,04,03,2.40
2011,04,19,04,04,2.40
2011,04,19,04,05,2.40
2011,04,19,04,06,2.40
2011,04,19,04,07,2.40
2011,04,19,04,08,2.40
2011,04,19,04,09,2.40
2011,04,19,04,10,2.30
2011,04,19,04,11,2.30
2011,04,19,04,12,2.30
2011,04,19,04,13,2.30
2011,04,19,04,14,2.30
2011,04,19,04,15,2.30
2011,04,19,04,16,2.30
2011,04,19,04,17,2.30
2011,04,19,04,18,2.30
2011,04,19,04,19,2.30
2011,04,19,04,20,2.20
2011,04,19,04,21,2.20
2011,04,19,04,22,2.20
2011,04,19,04,23,2.20
2011,04,19,04,24,2.20
2011,04,19,04,25,2.20
2011,04,19,04,26,2.20
2011,04,19,04,27,2.20
2011,04,19,04,28,2.20
2011,04,19,04,29,2.20
2011,04,19,04,30,2.20
2011,04,19,04,31,2.20
2011,04,19,04,32,2.10
2011,04,19,04,33,2.10
2011,04,19,04,34,2.10
2011,04,19,04,35,2.10
2011,04,19,04,36,2.10
2011,04,19,04,37,2.10
2011,04,19,04,38,2.10
2011,04,19,04,39,2.10
2011,04,19,04,40,2.10
2011,04,19,04,41,2.10
2011,04,19,04,42,2.00
2011,04,19,04,43,2.00
2011,04,19,04,44,2.00
2011,04,19,04,45,1.90
2011,04,19,04,46,1.90
2011,04,19,04,47,1.90
2011,04,19,04,48,1.90
2011,04,19,04,49,1.90
2011,04,19,04,50,1.80
2011,04,19,04,51,1.80
2011,04,19,04,52,1.80
2011,04,19,04,53,1.80
2011,04,19,04,54,1.80
2011,04,19,04,55,1.80
2011,04,19,04,56,1.70
2011,04,19,04,57,1.70
2011,04,19,04,58,1.70
2011,04,19,04,59,1.70
2011,04,19,05,00,1.70
2011,04,19,05,01,1.80
2011,04,19,05,02,1.80
2011,04,19,05,03,1.80
2011,04,19,05,04,1.80
2011,04,19,05,05,1.70
2011,04,19,05,06,1.80
2011,04,19,05,07,1.70
2011,04,19,05,08,1.70
2011,04,19,05,09,1.80
2011,04,19,05,10,1.80
2011,04,19,05,11,1.80
2011,04,19,05,12,1.80
2011,04,19,05,13,1.80
2011,04,19,05,14,1.80
2011,04,19,05,15,1.80
2011,04,19,05,16,1.80
2011,04,19,05,17,1.70
2011,04,19,05,18,1.70
2011,04,19,05,19,1.70
2011,04,19,05,20,1.70
2011,04,19,05,21,1.70
2011,04,19,05,22,1.70
2011,04,19,05,23,1.70
2011,04,19,05,24,1.70
2011,04,19,05,25,1.80
2011,04,19,05,26,1.80
2011,04,19,05,27,1.80
2011,04,19,05,28,1.80
2011,04,19,05,29,1.80
2011,04,19,05,30,1.80
2011,04,19,05,31,1.80
2011,04,19,05,32,1.80
2011,04,19,05,33,1.80
2011,04,19,05,34,1.80
2011,04,19,05,35,1.70
2011,04,19,05,36,1.70
2011,04,19,05,37,1.70
2011,04,19,05,38,1.70
2011,04,19,05,39,1.70
2011,04,19,05,40,1.70
2011,04,19,05,41,1.70
2011,04,19,05,42,1.60
2011,04,19,05,43,1.60
2011,04,19,05,44,1.60
2011,04,19,05,45,1.60
2011,04,19,05,46,1.60
2011,04,19,05,47,1.60
2011,04,19,05,48,1.60
2011,04,19,05,49,1.70
2011,04,19,05,50,1.70
2011,04,19,05,51,1.70
2011,04,19,05,52,1.70
2011,04,19,05,53,1.70
2011,04,19,05,54,1.70
2011,04,19,05,55,1.70
2011,04,19,05,56,1.70
2011,04,19,05,57,1.70
2011,04,19,05,58,1.70
2011,04,19,05,59,1.70
2011,04,19,06,00,1.70
2011,04,19,06,01,1.70
2011,04,19,06,02,1.70
2011,04,19,06,03,1.70
2011,04,19,06,04,1.70
2011,04,19,06,05,1.70
2011,04,19,06,06,1.70
2011,04,19,06,07,1.70
2011,04,19,06,08,1.70
2011,04,19,06,09,1.70
2011,04,19,06,10,1.70
2011,04,19,06,11,1.70
2011,04,19,06,12,1.70
2011,04,19,06,13,1.70
2011,04,19,06,14,1.70
2011,04,19,06,15,1.70
2011,04,19,06,16,1.70
2011,04,19,06,17,1.70
2011,04,19,06,18,1.70
2011,04,19,06,19,1.70
2011,04,19,06,20,1.70
2011,04,19,06,21,1.70
2011,04,19,06,22,1.70
2011,04,19,06,23,1.70
2011,04,19,06,24,1.70
2011,04,19,06,25,1.70
2011,04,19,06,26,1.70
2011,04,19,06,27,1.70
2011,04,19,06,28,1.70
2011,04,19,06,29,1.80
2011,04,19,06,30,1.80
2011,04,19,06,31,1.80
2011,04,19,06,32,1.80
2011,04,19,06,33,1.80
2011,04,19,06,34,1.90
2011,04,19,06,35,1.90
2011,04,19,06,36,1.90
2011,04,19,06,37,2.00
2011,04,19,06,38,2.00
2011,04,19,06,39,2.10
2011,04,19,06,40,2.10
2011,04,19,06,41,2.20
2011,04,19,06,42,2.20
2011,04,19,06,43,2.20
2011,04,19,06,44,2.30
2011,04,19,06,45,2.30
2011,04,19,06,46,2.30
2011,04,19,06,47,2.40
2011,04,19,06,48,2.40
2011,04,19,06,49,2.50
2011,04,19,06,50,2.50
2011,04,19,06,51,2.60
2011,04,19,06,52,2.60
2011,04,19,06,53,2.60
2011,04,19,06,54,2.70
2011,04,19,06,55,2.70
2011,04,19,06,56,2.70
2011,04,19,06,57,2.70
2011,04,19,06,58,2.70
2011,04,19,06,59,2.70
2011,04,19,07,00,2.80
2011,04,19,07,01,2.80
2011,04,19,07,02,2.80
2011,04,19,07,03,2.80
2011,04,19,07,04,2.90
2011,04,19,07,05,2.90
2011,04,19,07,06,2.90
2011,04,19,07,07,2.90
2011,04,19,07,08,2.90
2011,04,19,07,09,2.90
2011,04,19,07,10,3.00
2011,04,19,07,11,3.00
2011,04,19,07,12,3.00
2011,04,19,07,13,3.00
2011,04,19,07,14,3.00
2011,04,19,07,15,3.00
2011,04,19,07,16,3.00
2011,04,19,07,17,2.90
2011,04,19,07,18,2.90
2011,04,19,07,19,2.90
2011,04,19,07,20,3.00
2011,04,19,07,21,3.00
2011,04,19,07,22,3.00
2011,04,19,07,23,3.00
2011,04,19,07,24,3.00
2011,04,19,07,25,3.00
2011,04,19,07,26,3.10
2011,04,19,07,27,3.10
2011,04,19,07,28,3.10
2011,04,19,07,29,3.10
2011,04,19,07,30,3.10
2011,04,19,07,31,3.10
2011,04,19,07,32,3.20
2011,04,19,07,33,3.20
2011,04,19,07,34,3.20
2011,04,19,07,35,3.20
2011,04,19,07,36,3.20
2011,04,19,07,37,3.20
2011,04,19,07,38,3.30
2011,04,19,07,39,3.30
2011,04,19,07,40,3.30
2011,04,19,07,41,3.30
2011,04,19,07,42,3.30
2011,04,19,07,43,3.40
2011,04,19,07,44,3.40
2011,04,19,07,45,3.40
2011,04,19,07,46,3.40
2011,04,19,07,47,3.50
2011,04,19,07,48,3.50
2011,04,19,07,49,3.50
2011,04,19,07,50,3.50
2011,04,19,07,51,3.60
2011,04,19,07,52,3.60
2011,04,19,07,53,3.60
2011,04,19,07,54,3.60
2011,04,19,07,55,3.70
2011,04,19,07,56,3.70
2011,04,19,07,57,3.70
2011,04,19,07,58,3.70
2011,04,19,07,59,3.70
2011,04,19,08,00,3.80
2011,04,19,08,01,3.80
2011,04,19,08,02,3.80
2011,04,19,08,03,3.80
2011,04,19,08,04,3.80
2011,04,19,08,05,3.80
2011,04,19,08,06,3.80
2011,04,19,08,07,3.80
2011,04,19,08,08,3.90
2011,04,19,08,09,3.90
2011,04,19,08,10,3.90
2011,04,19,08,11,3.90
2011,04,19,08,12,3.90
2011,04,19,08,13,4.00
2011,04,19,08,14,4.00
2011,04,19,08,15,4.00
2011,04,19,08,16,4.10
2011,04,19,08,17,4.10
2011,04,19,08,18,4.10
2011,04,19,08,19,4.20
2011,04,19,08,20,4.20
2011,04,19,08,21,4.20
2011,04,19,08,22,4.30
2011,04,19,08,23,4.30
2011,04,19,08,24,4.40
2011,04,19,08,25,4.50
2011,04,19,08,26,4.60
2011,04,19,08,27,4.60
2011,04,19,08,28,4.70
2011,04,19,08,29,4.70
2011,04,19,08,30,4.80
2011,04,19,08,31,4.90
2011,04,19,08,32,4.90
2011,04,19,08,33,5.00
2011,04,19,08,34,5.10
2011,04,19,08,35,5.10
2011,04,19,08,36,5.20
2011,04,19,08,37,5.40
2011,04,19,08,38,5.50
2011,04,19,08,39,5.60
2011,04,19,08,40,5.70
2011,04,19,08,41,5.90
2011,04,19,08,42,6.00
2011,04,19,08,43,6.20
2011,04,19,08,44,6.30
2011,04,19,08,45,6.40
2011,04,19,08,46,6.60
2011,04,19,08,47,6.70
2011,04,19,08,48,6.90
2011,04,19,08,49,7.00
2011,04,19,08,50,7.20
2011,04,19,08,51,7.30
2011,04,19,08,52,7.50
2011,04,19,08,53,7.70
2011,04,19,08,54,7.80
2011,04,19,08,55,7.90
2011,04,19,08,56,8.00
2011,04,19,08,57,8.10
2011,04,19,08,58,8.20
2011,04,19,08,59,8.20
2011,04,19,09,00,8.30
2011,04,19,09,01,8.40
2011,04,19,09,02,8.50
2011,04,19,09,03,8.60
2011,04,19,09,04,8.70
2011,04,19,09,05,8.70
2011,04,19,09,06,8.80
2011,04,19,09,07,8.80
2011,04,19,09,08,8.90
2011,04,19,09,09,8.90
2011,04,19,09,10,8.90
2011,04,19,09,11,9.00
2011,04,19,09,12,9.10
2011,04,19,09,13,9.10
2011,04,19,09,14,9.10
2011,04,19,09,15,9.00
2011,04,19,09,16,8.90
2011,04,19,09,17,8.90
2011,04,19,09,18,8.90
2011,04,19,09,19,8.90
2011,04,19,09,20,8.90
2011,04,19,09,21,8.80
2011,04,19,09,22,8.60
2011,04,19,09,23,8.40
2011,04,19,09,24,8.20
2011,04,19,09,25,8.00
2011,04,19,09,26,7.80
2011,04,19,09,27,7.70
2011,04,19,09,28,7.50
2011,04,19,09,29,7.40
2011,04,19,09,30,7.30
2011,04,19,09,31,7.20
2011,04,19,09,32,7.20
2011,04,19,09,33,7.10
2011,04,19,09,34,7.00
2011,04,19,09,35,7.00
2011,04,19,09,36,7.00
2011,04,19,09,37,6.90
2011,04,19,09,38,7.00
2011,04,19,09,39,7.00
2011,04,19,09,40,7.10
2011,04,19,09,41,7.00
2011,04,19,09,42,7.00
2011,04,19,09,43,7.00
2011,04,19,09,44,7.00
2011,04,19,09,45,7.10
2011,04,19,09,46,7.00
2011,04,19,09,47,7.10
2011,04,19,09,48,7.10
2011,04,19,09,49,7.10
2011,04,19,09,50,7.10
2011,04,19,09,51,7.20
2011,04,19,09,52,7.20
2011,04,19,09,53,7.30
2011,04,19,09,54,7.30
2011,04,19,09,55,7.40
2011,04,19,09,56,7.60
2011,04,19,09,57,7.80
2011,04,19,09,58,7.90
2011,04,19,09,59,8.10
2011,04,19,10,00,8.20
2011,04,19,10,01,8.20
2011,04,19,10,02,8.10
2011,04,19,10,03,8.00
2011,04,19,10,04,7.90
2011,04,19,10,05,7.80
2011,04,19,10,06,7.80
2011,04,19,10,07,7.80
2011,04,19,10,08,7.80
2011,04,19,10,09,7.80
2011,04,19,10,10,7.80
2011,04,19,10,11,7.80
2011,04,19,10,12,7.80
2011,04,19,10,13,7.80
2011,04,19,10,14,7.80
2011,04,19,10,15,7.80
2011,04,19,10,16,7.80
2011,04,19,10,17,7.80
2011,04,19,10,18,7.80
2011,04,19,10,19,7.70
2011,04,19,10,20,7.60
2011,04,19,10,21,7.60
2011,04,19,10,22,7.50
2011,04,19,10,23,7.40
2011,04,19,10,24,7.40
2011,04,19,10,25,7.40
2011,04,19,10,26,7.40
2011,04,19,10,27,7.50
2011,04,19,10,28,7.50
2011,04,19,10,29,7.50
2011,04,19,10,30,7.60
2011,04,19,10,31,7.60
2011,04,19,10,32,7.70
2011,04,19,10,33,7.90
2011,04,19,10,34,8.00
2011,04,19,10,35,8.10
2011,04,19,10,36,8.20
2011,04,19,10,37,8.20
2011,04,19,10,38,8.30
2011,04,19,10,39,8.40
2011,04,19,10,40,8.40
2011,04,19,10,41,8.40
2011,04,19,10,42,8.50
2011,04,19,10,43,8.60
2011,04,19,10,44,8.60
2011,04,19,10,45,8.60
2011,04,19,10,46,8.60
2011,04,19,10,47,8.60
2011,04,19,10,48,8.70
2011,04,19,10,49,8.70
2011,04,19,10,50,8.60
2011,04,19,10,51,8.60
2011,04,19,10,52,8.60
2011,04,19,10,53,8.50
2011,04,19,10,54,8.40
2011,04,19,10,55,8.40
2011,04,19,10,56,8.30
2011,04,19,10,57,8.30
2011,04,19,10,58,8.20
2011,04,19,10,59,8.10
2011,04,19,11,00,8.10
2011,04,19,11,01,8.10
2011,04,19,11,02,8.10
2011,04,19,11,03,8.10
2011,04,19,11,04,8.00
2011,04,19,11,05,8.00
2011,04,19,11,06,8.10
2011,04,19,11,07,8.10
2011,04,19,11,08,8.10
2011,04,19,11,09,8.20
2011,04,19,11,10,8.20
2011,04,19,11,11,8.30
2011,04,19,11,12,8.30
2011,04,19,11,13,8.30
2011,04,19,11,14,8.30
2011,04,19,11,15,8.30
2011,04,19,11,16,8.30
2011,04,19,11,17,8.40
2011,04,19,11,18,8.50
2011,04,19,11,19,8.60
2011,04,19,11,20,8.60
2011,04,19,11,21,8.60
2011,04,19,11,22,8.60
2011,04,19,11,23,8.60
2011,04,19,11,24,8.60
2011,04,19,11,25,8.60
2011,04,19,11,26,8.70
2011,04,19,11,27,8.80
2011,04,19,11,28,8.80
2011,04,19,11,29,8.90
2011,04,19,11,30,9.00
2011,04,19,11,31,9.10
2011,04,19,11,32,9.20
2011,04,19,11,33,9.20
2011,04,19,11,34,9.20
2011,04,19,11,35,9.30
2011,04,19,11,36,9.30
2011,04,19,11,37,9.20
2011,04,19,11,38,9.20
2011,04,19,11,39,9.30
2011,04,19,11,40,9.20
2011,04,19,11,41,9.20
2011,04,19,11,42,9.20
2011,04,19,11,43,9.10
2011,04,19,11,44,9.00
2011,04,19,11,45,8.90
2011,04,19,11,46,8.80
2011,04,19,11,47,8.80
2011,04,19,11,48,8.70
2011,04,19,11,49,8.70
2011,04,19,11,50,8.60
2011,04,19,11,51,8.50
2011,04,19,11,52,8.50
2011,04,19,11,53,8.50
2011,04,19,11,54,8.40
2011,04,19,11,55,8.40
2011,04,19,11,56,8.40
2011,04,19,11,57,8.40
2011,04,19,11,58,8.40
2011,04,19,11,59,8.40
2011,04,19,12,00,8.40
2011,04,19,12,01,8.50
2011,04,19,12,02,8.60
2011,04,19,12,03,8.70
2011,04,19,12,04,8.70
2011,04,19,12,05,8.70
2011,04,19,12,06,8.60
2011,04,19,12,07,8.60
2011,04,19,12,08,8.70
2011,04,19,12,09,8.70
2011,04,19,12,10,8.70
2011,04,19,12,11,8.70
2011,04,19,12,12,8.80
2011,04,19,12,13,8.70
2011,04,19,12,14,8.70
2011,04,19,12,15,8.60
2011,04,19,12,16,8.60
2011,04,19,12,17,8.60
2011,04,19,12,18,8.70
2011,04,19,12,19,8.70
2011,04,19,12,20,8.70
2011,04,19,12,21,8.70
2011,04,19,12,22,8.80
2011,04,19,12,23,8.90
2011,04,19,12,24,9.00
2011,04,19,12,25,9.00
2011,04,19,12,26,9.10
2011,04,19,12,27,9.10
2011,04,19,12,28,9.10
2011,04,19,12,29,9.10
2011,04,19,12,30,9.20
2011,04,19,12,31,9.10
2011,04,19,12,32,9.00
2011,04,19,12,33,8.90
2011,04,19,12,34,8.80
2011,04,19,12,35,8.80
2011,04,19,12,36,9.00
2011,04,19,12,37,9.10
2011,04,19,12,38,9.20
2011,04,19,12,39,9.30
2011,04,19,12,40,9.30
2011,04,19,12,41,9.30
2011,04,19,12,42,9.10
2011,04,19,12,43,9.10
2011,04,19,12,44,9.20
2011,04,19,12,45,9.20
2011,04,19,12,46,9.20
2011,04,19,12,47,9.30
2011,04,19,12,48,9.40
2011,04,19,12,49,9.40
2011,04,19,12,50,9.30
2011,04,19,12,51,9.40
2011,04,19,12,52,9.40
2011,04,19,12,53,9.40
2011,04,19,12,54,9.30
2011,04,19,12,55,9.30
2011,04,19,12,56,9.30
2011,04,19,12,57,9.30
2011,04,19,12,58,9.20
2011,04,19,12,59,9.00
2011,04,19,13,00,8.90
2011,04,19,13,01,8.90
2011,04,19,13,02,8.80
2011,04,19,13,03,8.80
2011,04,19,13,04,8.80
2011,04,19,13,05,8.60
2011,04,19,13,06,8.50
2011,04,19,13,07,8.50
2011,04,19,13,08,8.50
2011,04,19,13,09,8.50
2011,04,19,13,10,8.50
2011,04,19,13,11,8.60
2011,04,19,13,12,8.70
2011,04,19,13,13,8.70
2011,04,19,13,14,8.60
2011,04,19,13,15,8.60
2011,04,19,13,16,8.50
2011,04,19,13,17,8.50
2011,04,19,13,18,8.40
2011,04,19,13,19,8.40
2011,04,19,13,20,8.30
2011,04,19,13,21,8.30
2011,04,19,13,22,8.40
2011,04,19,13,23,8.40
2011,04,19,13,24,8.40
2011,04,19,13,25,8.50
2011,04,19,13,26,8.50
2011,04,19,13,27,8.60
2011,04,19,13,28,8.60
2011,04,19,13,29,8.70
2011,04,19,13,30,8.70
2011,04,19,13,31,8.70
2011,04,19,13,32,8.70
2011,04,19,13,33,8.80
2011,04,19,13,34,8.80
2011,04,19,13,35,8.80
2011,04,19,13,36,8.80
2011,04,19,13,37,8.80
2011,04,19,13,38,8.80
2011,04,19,13,39,8.80
2011,04,19,13,40,8.80
2011,04,19,13,41,8.80
2011,04,19,13,42,8.70
2011,04,19,13,43,8.70
2011,04,19,13,44,8.80
2011,04,19,13,45,8.80
2011,04,19,13,46,8.80
2011,04,19,13,47,8.90
2011,04,19,13,48,9.00
2011,04,19,13,49,9.10
2011,04,19,13,50,9.20
2011,04,19,13,51,9.30
2011,04,19,13,52,9.20
2011,04,19,13,53,9.10
2011,04,19,13,54,9.10
2011,04,19,13,55,9.00
2011,04,19,13,56,9.10
2011,04,19,13,57,9.00
2011,04,19,13,58,9.00
2011,04,19,13,59,9.00
2011,04,19,14,00,8.90
2011,04,19,14,01,8.90
2011,04,19,14,02,8.90
2011,04,19,14,03,8.90
2011,04,19,14,04,8.90
2011,04,19,14,05,8.90
2011,04,19,14,06,8.90
2011,04,19,14,07,8.90
2011,04,19,14,08,8.90
2011,04,19,14,09,9.00
2011,04,19,14,10,9.00
2011,04,19,14,11,9.10
2011,04,19,14,12,9.10
2011,04,19,14,13,9.20
2011,04,19,14,14,9.30
2011,04,19,14,15,9.30
2011,04,19,14,16,9.30
2011,04,19,14,17,9.40
2011,04,19,14,18,9.40
2011,04,19,14,19,9.30
2011,04,19,14,20,9.30
2011,04,19,14,21,9.20
2011,04,19,14,22,9.10
2011,04,19,14,23,9.00
2011,04,19,14,24,8.90
2011,04,19,14,25,8.90
2011,04,19,14,26,8.80
2011,04,19,14,27,8.80
2011,04,19,14,28,8.80
2011,04,19,14,29,8.70
2011,04,19,14,30,8.70
2011,04,19,14,31,8.70
2011,04,19,14,32,8.80
2011,04,19,14,33,8.80
2011,04,19,14,34,8.80
2011,04,19,14,35,8.80
2011,04,19,14,36,8.80
2011,04,19,14,37,8.80
2011,04,19,14,38,8.80
2011,04,19,14,39,8.80
2011,04,19,14,40,8.80
2011,04,19,14,41,8.80
2011,04,19,14,42,8.80
2011,04,19,14,43,8.80
2011,04,19,14,44,8.80
2011,04,19,14,45,8.80
2011,04,19,14,46,8.80
2011,04,19,14,47,8.80
2011,04,19,14,48,8.80
2011,04,19,14,49,8.70
2011,04,19,14,50,8.70
2011,04,19,14,51,8.70
2011,04,19,14,52,8.80
2011,04,19,14,53,8.80
2011,04,19,14,54,8.80
2011,04,19,14,55,8.80
2011,04,19,14,56,8.80
2011,04,19,14,57,8.80
2011,04,19,14,58,8.90
2011,04,19,14,59,8.90
2011,04,19,15,00,8.90
2011,04,19,15,01,8.90
2011,04,19,15,02,8.90
2011,04,19,15,03,9.00
2011,04,19,15,04,9.00
2011,04,19,15,05,9.00
2011,04,19,15,06,9.00
2011,04,19,15,07,9.00
2011,04,19,15,08,9.00
2011,04,19,15,09,9.00
2011,04,19,15,10,8.90
2011,04,19,15,11,8.90
2011,04,19,15,12,9.00
2011,04,19,15,13,8.90
2011,04,19,15,14,8.90
2011,04,19,15,15,8.90
2011,04,19,15,16,8.90
2011,04,19,15,17,8.90
2011,04,19,15,18,8.90
2011,04,19,15,19,8.90
2011,04,19,15,20,8.90
2011,04,19,15,21,8.90
2011,04,19,15,22,8.90
2011,04,19,15,23,8.90
2011,04,19,15,24,8.90
2011,04,19,15,25,8.90
2011,04,19,15,26,8.90
2011,04,19,15,27,8.80
2011,04,19,15,28,8.80
2011,04,19,15,29,8.80
2011,04,19,15,30,8.80
2011,04,19,15,31,8.80
2011,04,19,15,32,8.80
2011,04,19,15,33,8.80
2011,04,19,15,34,8.70
2011,04,19,15,35,8.70
2011,04,19,15,36,8.70
2011,04,19,15,37,8.70
2011,04,19,15,38,8.80
2011,04,19,15,39,8.80
2011,04,19,15,40,8.80
2011,04,19,15,41,8.80
2011,04,19,15,42,8.80
2011,04,19,15,43,8.80
2011,04,19,15,44,8.80
2011,04,19,15,45,8.80
2011,04,19,15,46,8.80
2011,04,19,15,47,8.90
2011,04,19,15,48,8.90
2011,04,19,15,49,8.90
2011,04,19,15,50,8.90
2011,04,19,15,51,8.80
2011,04,19,15,52,8.70
2011,04,19,15,53,8.60
2011,04,19,15,54,8.60
2011,04,19,15,55,8.50
2011,04,19,15,56,8.50
2011,04,19,15,57,8.50
2011,04,19,15,58,8.50
2011,04,19,15,59,8.50
2011,04,19,16,00,8.50
2011,04,19,16,01,8.50
2011,04,19,16,02,8.50
2011,04,19,16,03,8.50
2011,04,19,16,04,8.50
2011,04,19,16,05,8.40
2011,04,19,16,06,8.40
2011,04,19,16,07,8.40
2011,04,19,16,08,8.40
2011,04,19,16,09,8.50
2011,04,19,16,10,8.50
2011,04,19,16,11,8.60
2011,04,19,16,12,8.60
2011,04,19,16,13,8.70
2011,04,19,16,14,8.70
2011,04,19,16,15,8.80
2011,04,19,16,16,8.90
2011,04,19,16,17,9.00
2011,04,19,16,18,9.00
2011,04,19,16,19,9.00
2011,04,19,16,20,9.00
2011,04,19,16,21,9.10
2011,04,19,16,22,9.20
2011,04,19,16,23,9.20
2011,04,19,16,24,9.30
2011,04,19,16,25,9.40
2011,04,19,16,26,9.40
2011,04,19,16,27,9.40
2011,04,19,16,28,9.30
2011,04,19,16,29,9.30
2011,04,19,16,30,9.20
2011,04,19,16,31,9.20
2011,04,19,16,32,9.20
2011,04,19,16,33,9.20
2011,04,19,16,34,9.20
2011,04,19,16,35,9.10
2011,04,19,16,36,9.10
2011,04,19,16,37,9.10
2011,04,19,16,38,9.10
2011,04,19,16,39,9.20
2011,04,19,16,40,9.30
2011,04,19,16,41,9.30
2011,04,19,16,42,9.40
2011,04,19,16,43,9.40
2011,04,19,16,44,9.40
2011,04,19,16,45,9.50
2011,04,19,16,46,9.60
2011,04,19,16,47,9.60
2011,04,19,16,48,9.70
2011,04,19,16,49,9.70
2011,04,19,16,50,9.80
2011,04,19,16,51,9.80
2011,04,19,16,52,9.80
2011,04,19,16,53,9.80
2011,04,19,16,54,9.90
2011,04,19,16,55,10.00
2011,04,19,16,56,10.00
2011,04,19,16,57,10.10
2011,04,19,16,58,10.10
2011,04,19,16,59,10.10
2011,04,19,17,00,10.10
2011,04,19,17,01,10.00
2011,04,19,17,02,10.00
2011,04,19,17,03,10.00
2011,04,19,17,04,10.00
2011,04,19,17,05,9.90
2011,04,19,17,06,9.90
2011,04,19,17,07,9.90
2011,04,19,17,08,9.90
2011,04,19,17,09,9.90
2011,04,19,17,10,10.00
2011,04,19,17,11,10.10
2011,04,19,17,12,10.10
2011,04,19,17,13,10.20
2011,04,19,17,14,10.20
2011,04,19,17,15,10.20
2011,04,19,17,16,10.20
2011,04,19,17,17,10.20
2011,04,19,17,18,10.10
2011,04,19,17,19,10.00
2011,04,19,17,20,9.90
2011,04,19,17,21,9.80
2011,04,19,17,22,9.80
2011,04,19,17,23,9.80
2011,04,19,17,24,9.70
2011,04,19,17,25,9.70
2011,04,19,17,26,9.60
2011,04,19,17,27,9.60
2011,04,19,17,28,9.60
2011,04,19,17,29,9.60
2011,04,19,17,30,9.60
2011,04,19,17,31,9.60
2011,04,19,17,32,9.60
2011,04,19,17,33,9.60
2011,04,19,17,34,9.60
2011,04,19,17,35,9.60
2011,04,19,17,36,9.60
2011,04,19,17,37,9.50
2011,04,19,17,38,9.50
2011,04,19,17,39,9.50
2011,04,19,17,40,9.50
2011,04,19,17,41,9.60
2011,04,19,17,42,9.60
2011,04,19,17,43,9.60
2011,04,19,17,44,9.60
2011,04,19,17,45,9.50
2011,04,19,17,46,9.50
2011,04,19,17,47,9.50
2011,04,19,17,48,9.50
2011,04,19,17,49,9.50
2011,04,19,17,50,9.50
2011,04,19,17,51,9.60
2011,04,19,17,52,9.60
2011,04,19,17,53,9.60
2011,04,19,17,54,9.60
2011,04,19,17,55,9.60
2011,04,19,17,56,9.60
2011,04,19,17,57,9.60
2011,04,19,17,58,9.60
2011,04,19,17,59,9.60
2011,04,19,18,00,9.60
2011,04,19,18,01,9.60
2011,04,19,18,02,9.60
2011,04,19,18,03,9.70
2011,04,19,18,04,9.70
2011,04,19,18,05,9.70